Weather in Eshpoldino

Russia / Mari El Republic     57°18′05″N   49°08′44″E
temp.,
°C
wind,
m/s
gust,
m/s
humid.,
%
clouds,
%
prec.,
mm/h
press.,
hPa
HPBL,
m
1 march, mon
mon100:00−21n339716 0.0 101726
03:00−22n33968 0.0 101921
06:00−23n23950 0.0 102020
09:00−19w11920 0.0 102147
12:00−15w338816 0.0 1020256
15:00−12sw359235 0.0 1018308
18:00−13sw4996100 0.0 1015239
21:00−10ssw61194100 0.1 1012305
2 march, tue
tue200:00−8sw71395100 1.5 1007481
03:00−5sw71495100 2.8 1003567
06:00−2sw71396100 1.3 999521
09:000w61199100 2.7 997610
12:000wnw51099100 0.6 995608
15:000w599897 0.9 995592
18:00−2wnw5128798 0.2 995470
21:00−3wnw7139594 0.4 996578
3 march, wed
wed300:00−5wnw6129396 0.4 997419
03:00−7wnw6119596 0.4 998320
06:00−6wnw61194100 0.3 998445
09:00−6nw61091100 0.4 1000599
12:00−5nw71089100 0.1 1001741
15:00−5nw7988100 0.2 1002878
18:00−8wnw51093100 0.1 1003314
21:00−8wnw51292100 0.2 1004385
4 march, thu
thu400:00−10w489664 0.2 1002188
03:00−9wsw499681 0.3 1002218
06:00−10w4696100 0.1 1001128
09:00−9sw479687 0.1 1000252
12:00−4ssw6990100 0.1 997702
15:00−3ssw81296100 1.1 993909
18:00−1sw81496100 1.4 990775
21:00−1wsw71392100 1.6 988790
5 march, fri
fri500:00−2w61191100 1.4 987643
03:00−8w71490100 1.4 989670
06:00−9nw101589100 0.3 994748
09:00−11nw8138797 0.3 999609
12:00−9wnw7108890 0.0 1003731
15:00−8w7118392 0.1 1006826
18:00−12w479350 0.0 1009136
21:00−12wnw239673 0.1 101149